San Jose, Costa Rica

11:40 PM CST on March 24, 2017 (GMT -0600)
San Jose

Weather History for 78762 - December, 2012

Change the Weather History Date:

Sunday, December 30, 2012

  Actual Average Record
Temperature  
Mean Temperature 75 °F -  
Max Temperature 82 °F 80 °F - ()
Min Temperature 68 °F 63 °F - ()
Cooling Degree Days 10    
Growing Degree Days 25 (Base 50)    
Moisture  
Dew Point 57 °F    
Average Humidity 56    
Maximum Humidity 73    
Minimum Humidity 29    
Precipitation  
Precipitation 0.00 in 0.01 in - ()
Sea Level Pressure  
Sea Level Pressure 29.96 in    
Wind  
Wind Speed 14 mph ()    
Max Wind Speed 33 mph    
Max Gust Speed 46 mph    
Visibility 8.0 miles    
Events      
T = Trace of Precipitation, MM = Missing Value Source: Averaged Metar Reports

Daily Weather History Graph

Daily Weather History Graph

Search for Another Location

Airport or City:

Trip Planner

Search our weather history database for the weather conditions in past years. The results will help you decide how hot, cold, wet, or windy it might be!

Date:

Astronomy

Dec. 30, 2012 Rise Set
Actual Time 5:53 AM CST 5:26 PM CST
Civil Twilight 5:30 AM CST 5:49 PM CST
Nautical Twilight 5:04 AM CST 6:15 PM CST
Astronomical Twilight 4:37 AM CST 6:41 PM CST
Moon 7:28 PM CST (12/30) 7:25 AM CST (12/30)
Length of Visible Light 12h 18m
Length of Day
11h 33m
Waning Gibbous, 95% of the Moon is Illuminated
Dec 30
Waning Gibbous
Jan 4
Last Quarter
Jan 11
New
Jan 18
First Quarter
Jan 26
Full

Hourly Weather History & Observations

Time (CST) Temp. Heat Index Dew Point Humidity Pressure Visibility Wind Dir Wind Speed Gust Speed Precip Events Conditions
12:00 AM 69 °F - 58 °F 59% 29.83 in 12 mi East 11.5 mph - -   Clear
12:00 AM 69.8 °F - 57.2 °F 64% 29.99 in - East 11.5 mph 23.0 mph N/A   Clear
1:00 AM 68.0 °F - 59.0 °F 73% 29.97 in - East 11.5 mph 23.0 mph N/A   Clear
2:00 AM 69.8 °F - 59.0 °F 68% 29.96 in - East 12.7 mph - N/A   Clear
3:00 AM 70 °F - 58 °F 57% 29.77 in 12 mi ESE 11.5 mph - -   Partly Cloudy
3:00 AM 69.8 °F - 59.0 °F 68% 29.94 in - ESE 11.5 mph 23.0 mph N/A   Clear
4:00 AM 69.8 °F - 59.0 °F 68% 29.95 in 6.2 mi East 13.8 mph 25.3 mph N/A   Scattered Clouds
5:00 AM 69.8 °F - 59.0 °F 68% 29.97 in 6.2 mi East 12.7 mph - N/A   Partly Cloudy
6:00 AM 70 °F - 60 °F 61% 29.83 in 12 mi East 12.7 mph - -   Scattered Clouds
6:00 AM 69.8 °F - 59.0 °F 68% 29.99 in 6.2 mi East 12.7 mph - N/A   Partly Cloudy
7:00 AM 69.8 °F - 60.8 °F 73% 30.01 in 6.2 mi East 12.7 mph - N/A   Partly Cloudy
8:00 AM 73.4 °F - 59.0 °F 61% 30.03 in 6.2 mi ENE 18.4 mph 29.9 mph N/A   Partly Cloudy
9:00 AM 76 °F - 55 °F 38% 29.90 in 12 mi ENE 32.2 mph - -   Scattered Clouds
9:00 AM 75.2 °F - 55.4 °F 50% 30.04 in 6.2 mi ENE 20.7 mph 32.2 mph N/A   Partly Cloudy
10:00 AM 78.8 °F - 55.4 °F 44% 30.02 in 6.2 mi ENE 25.3 mph 39.1 mph N/A   Partly Cloudy
11:00 AM 80.6 °F 80.5 °F 55.4 °F 42% 30.01 in 6.2 mi ENE 29.9 mph 46.0 mph N/A   Partly Cloudy
12:00 PM 80 °F - 54 °F 29% 29.86 in 12 mi ENE 33.4 mph - -   Scattered Clouds
12:00 PM 80.6 °F 80.3 °F 53.6 °F 39% 30.00 in 6.2 mi ENE 21.9 mph 33.4 mph N/A   Scattered Clouds
1:00 PM 80.6 °F 80.5 °F 55.4 °F 42% 29.99 in 6.2 mi ENE 15.0 mph 31.1 mph N/A   Scattered Clouds
2:00 PM 77.0 °F - 55.4 °F 47% 29.97 in 6.2 mi ENE 16.1 mph 29.9 mph N/A   Scattered Clouds
3:00 PM 77 °F - 57 °F 40% 29.82 in 12 mi ENE 17.3 mph - -   Partly Cloudy
3:00 PM 77.0 °F - 57.2 °F 50% 29.97 in 6.2 mi ENE 17.3 mph 28.8 mph N/A   Scattered Clouds
4:00 PM 75.2 °F - 57.2 °F 53% 29.98 in 6.2 mi ENE 13.8 mph 25.3 mph N/A   Scattered Clouds
5:00 PM 73.4 °F - 59.0 °F 61% 29.99 in 6.2 mi East 11.5 mph 23.0 mph N/A   Scattered Clouds
6:00 PM 73 °F - 57 °F 46% 29.85 in 12 mi ENE 11.5 mph - -   Scattered Clouds
6:00 PM 73.4 °F - 57.2 °F 57% 30.00 in 6.2 mi ENE 11.5 mph 23.0 mph N/A   Scattered Clouds
7:00 PM 71.6 °F - 59.0 °F 64% 30.01 in 6.2 mi ENE 11.5 mph 23.0 mph N/A   Partly Cloudy
8:00 PM 69.8 °F - 59.0 °F 68% 30.04 in 6.2 mi East 10.4 mph - N/A   Partly Cloudy
9:00 PM 72 °F - 57 °F 50% 29.89 in 12 mi ENE 19.6 mph - -   Scattered Clouds
9:00 PM 71.6 °F - 57.2 °F 60% 30.02 in 6.2 mi ENE 20.7 mph 32.2 mph N/A   Scattered Clouds
10:00 PM 71.6 °F - 57.2 °F 60% 30.04 in - ENE 13.8 mph 25.3 mph N/A   Clear
11:00 PM 71.6 °F - 55.4 °F 57% 30.03 in - ENE 16.1 mph 27.6 mph N/A   Clear